Temperature
15 15 15 16 15 15 15 15 15 14 14 14 14 14 14 13 13 13 13 14 14 13 13 13 13 13 12 12 12 12 12 12 12 12 12 12 12 12 12 12 12 12 12
15 15 15 15 15 15 15 15 14 14 14 14 14 13 13 13 13 13 13 13 14 13 13 13 13 13 13 12 12 12 12 12 12 12 12 11 11 11 11 11 11 11 12
15 15 15 15 15 15 15 14 14 14 14 14 13 13 13 13 13 13 13 13 13 13 13 13 13 13 12 12 12 12 12 12 11 11 11 11 11 11 11 11 11 11 11
15 15 15 15 14 14 14 14 14 13 13 13 13 13 13 13 13 13 13 13 13 13 13 13 13 12 12 12 12 12 12 11 11 11 11 11 11 11 11 11 11 11 11
14 14 14 14 14 14 14 14 13 13 13 13 13 13 13 13 13 14 13 13 13 13 13 12 12 12 12 12 12 11 11 11 11 11 11 10 10 10 10 10 10 10 10
14 14 14 14 14 13 13 13 13 13 13 13 13 13 13 13 14 13 13 13 13 13 12 12 12 12 12 11 11 11 11 11 10 10 10 10 10 10 10 10 10 10 10
14 14 14 14 13 13 13 13 13 13 13 13 13 13 13 13 13 13 13 13 12 12 12 12 11 11 11 11 11 10 10 10 10 10 10 10 9 9 9 10 9 9 10
13 13 13 13 13 13 13 13 13 13 13 13 12 12 12 12 12 13 12 12 12 11 11 11 11 11 10 10 10 10 10 9 9 9 9 9 9 9 9 9 9 9 9
13 13 13 13 13 13 13 13 13 13 12 13 12 12 12 13 12 11 12 11 11 11 10 10 10 10 10 10 9 9 9 9 9 9 9 9 9 9 8 9 9 9 9
13 13 13 13 13 13 13 13 12 12 12 12 12 12 12 12 11 11 10 10 10 10 10 9 9 9 9 9 9 9 8 8 8 8 8 8 8 8 8 8 8 8 8
13 13 13 13 13 13 13 12 12 12 12 12 12 12 12 12 11 10 10 10 9 9 9 9 9 8 8 8 8 8 8 8 8 7 7 7 7 7 8 8 8 8 8
13 13 13 13 12 12 12 12 12 12 12 12 12 12 12 11 11 10 9 9 8 8 8 8 8 8 7 7 7 7 7 7 7 7 7 7 7 7 7 7 7 7 7
12 12 12 12 12 12 12 12 12 12 12 12 12 12 11 11 11 10 9 8 7 7 7 7 7 7 7 6 6 6 6 6 6 6 6 6 6 6 6 6 7 7 7
12 12 12 12 11 11 12 11 11 11 11 11 11 11 11 11 10 10 9 7 6 6 6 6 6 6 6 6 5 5 5 6 5 5 5 6 5 5 5 6 6 6 6
12 12 12 11 11 11 11 11 11 11 11 11 11 11 11 10 10 9 8 7 6 6 6 5 5 5 5 5 5 5 5 5 5 5 5 5 5 5 5 5 5 5 6
12 11 11 11 11 11 11 11 11 11 11 11 11 10 10 10 9 8 7 7 6 5 5 5 4 4 4 4 4 4 4 4 4 4 4 4 4 4 4 4 4 5 5
11 11 11 11 11 11 10 10 11 11 10 10 10 10 9 9 8 7 7 6 5 5 4 4 4 4 4 4 4 3 3 3 3 3 3 3 3 3 3 3 4 4 4
11 10 10 10 10 10 10 10 10 10 10 10 9 9 9 8 7 6 6 5 5 4 4 3 3 3 3 3 3 3 3 3 3 3 2 2 2 3 3 3 3 3 3
10 10 10 10 10 10 10 10 10 9 9 9 9 8 8 7 6 6 5 5 4 4 3 3 3 3 3 3 2 2 2 2 2 2 2 2 2 2 2 2 2 3 3
9 9 9 9 9 9 9 9 9 9 9 8 8 7 7 6 5 5 4 4 3 3 3 3 2 2 2 2 2 2 2 2 2 2 2 2 1 1 2 2 2 2 2
8 8 8 8 8 8 8 8 8 8 8 8 7 6 6 5 5 4 3 3 3 2 2 2 2 2 2 2 2 2 1 1 1 1 1 1 1 1 1 1 1 2 2
8 8 8 8 8 8 8 8 7 7 7 6 6 6 5 4 4 3 3 2 2 2 2 2 1 1 1 1 1 1 1 1 1 1 1 1 1 1 1 1 1 1 1
7 7 7 7 7 7 7 7 6 6 6 6 5 5 4 3 3 2 2 2 2 2 1 1 1 1 1 1 1 1 1 0 0 1 1 1 1 1 1 1 1 1 1
6 6 6 6 6 6 6 6 6 5 5 5 4 4 3 3 2 2 2 2 1 1 1 1 1 1 1 1 1 1 0 0 0 0 0 0 0 0 0 0 1 1 1
5 5 5 5 5 5 5 5 5 5 4 4 4 3 3 2 2 1 1 1 1 1 1 1 1 1 1 0 0 0 0 0 0 0 0 0 0 0 0 0 0 0 0
5 5 4 4 4 4 4 4 4 4 3 3 3 2 2 2 1 1 1 1 1 1 1 1 0 0 0 0 0 0 0 -0 -0 -0 0 -0 -0 -0 -0 -0 -0 -0 -0
Wind_Speed
8 8 7 7 8 7 7 6 6 6 5 4 4 3 3 3 4 3 3 3 6 7 8 9 9 8 8 9 9 8 8 8 8 7 7 7 6 6 5 5 4 4 4
9 8 7 7 7 7 7 6 6 5 4 4 4 4 4 4 4 5 5 5 5 7 8 9 9 9 9 9 8 8 7 8 7 7 7 8 8 8 7 6 6 5 5
11 9 7 7 7 7 7 6 6 5 4 4 4 4 4 4 5 6 5 6 5 5 5 7 8 8 9 8 7 6 4 4 5 6 6 8 8 8 9 8 8 8 7
12 9 7 7 8 7 6 5 5 5 5 4 4 3 4 4 6 5 5 5 5 5 3 3 4 5 6 5 4 3 2 2 2 3 5 6 7 9 10 10 10 9 9
13 10 8 7 9 7 6 5 6 5 5 4 4 3 4 4 4 4 4 4 3 3 4 1 2 3 3 3 2 2 1 1 1 1 2 4 5 7 9 11 11 11 11
13 11 8 9 9 7 7 7 7 5 4 3 3 4 4 3 3 2 2 2 1 2 2 3 2 1 2 1 1 0 1 2 1 1 2 4 5 7 8 9 11 12 12
13 11 8 8 8 8 8 8 7 6 5 3 3 4 3 2 2 1 0 1 1 2 2 3 3 2 2 4 4 3 2 2 2 2 3 4 6 7 8 9 9 10 10
12 11 10 9 8 8 8 8 7 6 4 4 4 3 3 4 3 1 0 1 1 2 2 3 3 3 2 2 5 6 4 3 3 3 4 5 7 8 8 8 9 10 10
12 11 11 9 9 8 8 9 8 8 6 5 4 4 3 3 2 3 2 1 0 1 1 2 3 3 3 2 2 5 6 5 4 4 5 6 7 8 8 8 8 8 9
10 10 10 10 9 8 8 8 7 6 6 5 4 5 5 3 3 3 3 2 1 1 1 1 2 2 2 2 3 5 6 5 4 5 6 6 6 7 8 9 8 8 7
7 8 8 7 7 7 7 7 7 7 5 5 5 4 4 4 5 5 5 3 3 2 1 1 1 1 2 2 3 5 6 5 5 5 6 6 7 8 9 9 9 8 7
5 7 7 6 6 6 7 7 6 7 6 6 5 4 4 4 4 5 6 5 5 3 2 1 1 0 1 2 4 6 6 6 6 6 7 8 9 10 10 10 9 9 8
5 7 7 7 6 6 7 6 6 6 7 7 6 5 4 4 3 4 5 5 5 3 3 3 1 1 1 1 2 5 6 7 6 7 8 9 10 10 11 11 10 10 9
7 8 8 8 8 8 8 7 6 6 5 6 6 5 4 4 3 4 4 4 5 4 5 4 2 2 1 1 3 3 4 7 7 8 9 9 9 10 10 11 11 10 10
7 9 9 9 9 9 9 8 7 7 6 6 5 5 4 4 3 3 3 4 4 4 4 4 3 3 2 2 2 2 3 6 6 7 7 8 9 9 10 11 11 11 11
8 9 10 10 9 9 9 8 7 7 7 6 5 5 5 4 3 3 3 3 4 4 4 1 2 2 3 2 2 2 3 4 5 5 6 7 8 9 9 10 11 11 11
9 10 10 10 10 10 9 8 7 8 7 6 6 6 6 5 4 3 3 3 3 4 6 3 1 2 3 3 2 2 2 2 3 5 5 6 7 8 9 10 11 12 12
8 9 10 10 10 10 9 9 8 8 8 8 7 7 6 5 5 4 3 4 3 4 4 5 2 3 3 3 2 2 1 1 2 5 5 6 6 7 8 9 10 12 12
7 8 9 9 9 9 9 8 8 8 8 7 7 7 7 6 6 5 4 4 3 3 3 4 2 2 1 2 2 1 1 0 1 2 3 4 5 6 7 8 9 11 12
7 8 8 8 8 8 8 8 8 8 7 6 6 6 6 6 6 5 4 4 3 4 4 4 3 2 2 2 2 2 2 1 1 1 1 2 3 4 6 7 9 10 10
6 7 7 7 8 7 7 9 8 8 8 7 7 6 5 5 5 4 4 4 4 4 4 4 3 3 3 3 3 2 2 2 2 1 1 0 1 1 2 4 7 8 9
6 6 7 8 8 6 9 10 8 8 8 8 7 6 6 6 6 6 5 3 3 4 4 4 4 5 5 4 3 3 2 3 3 1 2 1 1 0 1 3 6 7 7
7 7 7 8 8 8 11 12 10 7 7 7 7 7 6 6 7 6 6 6 4 2 2 4 5 5 4 4 4 4 4 3 2 1 1 2 1 1 1 2 5 5 5
7 7 8 8 8 9 12 13 12 8 7 7 7 7 7 8 7 7 6 5 4 3 2 3 3 2 2 3 4 3 3 2 1 1 1 2 1 1 1 0 4 4 4
7 7 7 8 8 9 13 13 12 7 6 7 7 7 8 8 10 10 7 6 5 4 3 2 2 3 4 4 4 3 3 3 3 2 1 2 1 1 1 2 1 3 3
7 6 6 7 8 9 13 14 14 7 7 7 7 7 9 9 11 13 9 8 7 6 5 5 5 5 5 5 4 3 3 3 2 2 2 2 1 1 1 1 1 1 1
Wind_Direction
170 170 170 173 179 176 179 184 189 184 189 193 205 225 237 246 259 265 261 242 273 281 281 280 277 274 268 263 255 249 244 241 240 240 239 241 245 251 259 266 275 282 296
176 176 176 180 182 184 185 189 191 192 198 207 219 229 245 259 269 277 284 269 257 272 279 278 276 276 276 272 262 253 243 236 236 237 237 240 241 245 250 257 259 264 273
183 182 183 184 185 185 187 193 191 202 209 215 226 237 256 270 276 278 283 289 286 270 271 277 278 279 278 277 268 256 239 224 230 237 244 247 245 247 249 253 253 252 256
190 188 188 190 187 186 191 194 199 204 210 221 234 242 257 268 276 285 285 286 293 298 288 287 295 294 289 283 266 247 194 169 209 244 255 261 256 254 253 253 251 249 248
192 193 195 191 187 191 197 197 206 210 215 224 241 258 267 272 280 281 283 293 300 302 304 323 318 325 310 300 273 234 187 130 115 278 282 281 280 270 264 257 251 248 245
194 196 196 196 191 193 198 201 204 210 222 227 240 257 267 272 270 280 293 306 328 333 325 324 318 29 29 346 346 149 131 106 83 11 336 315 302 291 281 274 261 251 245
195 197 195 196 196 201 203 203 203 205 209 217 238 249 240 229 224 202 297 329 26 23 21 19 14 2 48 66 58 69 73 76 52 17 354 337 326 311 295 280 276 262 250
199 200 200 197 196 200 201 200 200 205 199 204 228 245 242 208 185 185 117 55 35 58 53 40 35 28 21 35 56 50 43 40 16 357 339 327 322 317 308 298 283 271 260
204 201 202 198 195 196 198 200 203 207 204 200 219 232 245 247 223 191 176 174 87 42 42 36 27 23 23 26 45 53 40 27 8 347 335 330 328 325 321 312 300 291 276
205 202 199 200 196 196 197 196 204 211 207 199 201 228 249 265 251 240 200 193 190 309 344 10 5 17 16 27 45 42 30 17 3 347 337 336 339 342 342 339 324 307 300
199 193 191 191 195 192 191 190 193 196 203 208 201 200 216 229 240 250 253 235 231 234 283 322 325 357 20 25 29 33 26 14 359 354 356 2 3 354 347 341 340 332 321
192 187 181 180 183 184 182 186 186 188 195 201 201 203 209 215 218 229 250 261 264 248 236 252 261 355 42 39 43 32 28 20 8 10 16 25 20 10 1 355 348 344 337
192 189 180 175 176 177 171 172 180 186 193 197 200 201 212 224 230 234 247 259 263 258 235 227 217 196 132 70 49 33 39 33 27 28 32 33 25 13 4 359 358 354 348
192 185 179 176 174 168 164 170 174 180 188 193 196 194 199 201 208 220 231 242 255 250 233 223 190 189 163 102 58 38 47 43 43 43 38 33 24 17 11 7 7 4 2
182 179 178 173 172 168 170 171 175 178 180 186 191 192 192 188 195 209 219 229 239 253 248 211 189 171 167 138 88 60 57 52 50 48 43 35 27 22 19 17 15 13 9
179 177 176 173 173 172 173 174 171 175 179 181 180 183 183 181 183 192 204 219 235 248 254 203 190 173 173 155 117 92 69 61 56 52 47 39 30 26 23 20 20 18 14
180 179 174 172 173 173 173 173 172 170 176 176 177 183 183 178 180 183 191 208 223 236 251 244 186 180 188 180 148 110 70 45 57 50 45 40 36 31 27 26 25 24 22
177 175 171 170 173 174 174 174 170 175 179 178 179 180 179 176 182 182 191 208 219 226 245 247 208 190 198 185 167 144 86 50 45 44 43 40 39 36 32 32 31 28 25
173 170 170 171 172 173 174 175 173 175 178 179 181 184 183 183 189 188 194 203 212 222 235 243 221 182 179 173 175 168 160 134 55 30 38 41 38 37 35 35 32 29 27
174 172 171 171 172 171 173 171 170 173 172 172 177 182 184 190 194 189 192 200 207 219 223 228 219 198 193 182 198 203 204 197 220 342 19 29 34 40 39 36 35 31 29
178 172 169 170 171 173 175 173 171 173 172 172 173 177 178 177 177 181 187 195 204 218 220 220 218 207 203 198 206 194 207 197 206 269 258 237 314 12 34 36 36 31 30
179 175 178 177 178 180 173 173 171 174 176 177 174 170 166 165 168 172 174 180 205 220 219 219 222 222 216 205 187 188 189 204 212 173 247 210 237 215 38 30 28 29 35
186 185 186 185 187 180 175 178 180 177 179 179 175 172 173 174 174 175 167 164 171 195 245 240 237 231 217 201 188 193 199 218 211 109 258 213 196 204 99 33 23 27 37
197 195 193 190 189 185 183 183 180 179 178 178 182 184 184 182 185 183 180 180 183 181 193 229 240 233 209 175 183 195 188 180 163 160 258 240 204 211 183 153 36 31 39
206 204 198 194 193 190 188 185 180 176 179 183 187 193 194 193 186 186 185 185 187 178 142 124 107 121 126 145 164 166 173 193 205 181 190 244 219 234 230 201 96 37 34
211 205 203 201 199 196 191 191 186 184 186 186 188 195 201 199 189 190 194 194 197 189 173 159 153 149 152 155 178 202 191 197 201 186 168 214 198 235 225 193 208 236 252
Height
1540 1543 1545 1547 1549 1551 1553 1554 1556 1557 1558 1558 1559 1559 1560 1560 1559 1559 1558 1556 1556 1555 1554 1553 1553 1552 1552 1551 1550 1550 1549 1548 1547 1547 1546 1545 1544 1544 1543 1542 1541 1541 1540
1539 1542 1544 1546 1548 1550 1551 1553 1554 1555 1556 1557 1558 1558 1558 1558 1557 1557 1556 1555 1553 1552 1552 1551 1550 1550 1549 1549 1548 1548 1547 1546 1546 1545 1544 1543 1542 1542 1541 1541 1540 1539 1539
1537 1540 1542 1544 1546 1548 1550 1551 1552 1553 1554 1555 1556 1556 1556 1556 1555 1554 1553 1552 1551 1550 1549 1548 1547 1547 1546 1546 1546 1545 1545 1544 1544 1543 1542 1541 1541 1540 1539 1539 1538 1538 1537
1535 1538 1540 1542 1544 1546 1548 1549 1550 1552 1553 1553 1554 1554 1554 1553 1553 1552 1551 1549 1548 1547 1546 1545 1545 1544 1544 1544 1543 1543 1543 1542 1542 1541 1540 1539 1539 1538 1537 1536 1536 1536 1535
1533 1535 1538 1540 1542 1544 1545 1547 1548 1550 1551 1551 1551 1551 1551 1551 1550 1549 1548 1547 1546 1545 1544 1543 1543 1542 1542 1541 1541 1540 1540 1540 1539 1539 1538 1537 1536 1535 1534 1533 1533 1532 1532
1530 1533 1535 1537 1539 1541 1543 1544 1546 1547 1548 1549 1549 1549 1548 1548 1547 1546 1545 1544 1543 1543 1542 1541 1541 1540 1540 1539 1539 1538 1538 1537 1537 1536 1535 1535 1533 1532 1531 1530 1530 1529 1529
1527 1530 1532 1534 1536 1538 1540 1541 1543 1544 1545 1546 1546 1546 1546 1544 1544 1543 1543 1542 1541 1541 1540 1539 1539 1538 1538 1537 1537 1536 1536 1535 1534 1533 1533 1531 1530 1529 1528 1527 1526 1526 1526
1524 1526 1528 1530 1532 1534 1536 1538 1540 1541 1542 1543 1543 1544 1544 1544 1541 1540 1540 1539 1539 1538 1537 1537 1536 1536 1535 1535 1534 1533 1533 1532 1531 1530 1530 1529 1527 1526 1524 1523 1522 1522 1522
1520 1522 1524 1526 1528 1530 1532 1534 1536 1538 1538 1539 1540 1541 1542 1541 1540 1538 1537 1537 1536 1536 1535 1534 1533 1533 1532 1532 1531 1530 1530 1529 1528 1527 1526 1525 1524 1522 1521 1520 1519 1518 1518
1515 1517 1520 1522 1524 1526 1528 1530 1532 1534 1535 1535 1536 1536 1537 1537 1537 1537 1535 1534 1533 1533 1532 1531 1530 1529 1529 1528 1527 1527 1526 1526 1525 1524 1523 1521 1520 1519 1517 1516 1515 1515 1515
1510 1512 1515 1517 1519 1521 1523 1526 1528 1529 1531 1531 1532 1532 1532 1532 1533 1533 1533 1532 1530 1529 1528 1527 1526 1525 1525 1524 1524 1523 1523 1522 1521 1520 1519 1518 1517 1515 1514 1513 1512 1511 1511
1505 1506 1509 1512 1514 1516 1519 1522 1524 1525 1526 1527 1527 1528 1528 1529 1528 1528 1528 1528 1527 1525 1524 1523 1522 1521 1521 1520 1520 1519 1519 1519 1518 1517 1516 1514 1513 1512 1511 1509 1508 1507 1507
1499 1501 1504 1506 1509 1512 1514 1517 1519 1520 1521 1522 1523 1523 1524 1524 1524 1524 1524 1523 1522 1521 1519 1519 1518 1517 1517 1517 1516 1516 1516 1515 1514 1513 1512 1511 1510 1508 1507 1506 1505 1504 1503
1494 1497 1499 1501 1504 1506 1509 1512 1514 1515 1517 1518 1518 1518 1519 1519 1519 1518 1519 1519 1518 1518 1516 1515 1514 1514 1514 1513 1513 1513 1512 1512 1511 1510 1509 1508 1506 1505 1504 1503 1501 1500 1499
1490 1492 1494 1496 1499 1502 1505 1507 1509 1510 1511 1513 1513 1514 1514 1513 1513 1513 1513 1514 1515 1514 1513 1512 1511 1510 1510 1510 1510 1509 1509 1508 1508 1507 1505 1504 1503 1502 1501 1499 1498 1497 1496
1486 1488 1490 1492 1495 1497 1500 1502 1503 1505 1507 1507 1508 1508 1508 1508 1508 1508 1508 1509 1509 1510 1509 1508 1507 1507 1507 1507 1506 1506 1505 1505 1504 1503 1502 1501 1500 1499 1498 1497 1496 1494 1494
1481 1483 1485 1487 1490 1492 1495 1496 1498 1500 1501 1502 1503 1503 1503 1503 1503 1503 1503 1503 1504 1504 1504 1504 1503 1503 1503 1503 1503 1503 1502 1502 1501 1500 1500 1499 1498 1497 1496 1495 1494 1493 1492
1477 1479 1481 1483 1485 1488 1490 1492 1493 1495 1496 1497 1497 1498 1498 1498 1498 1498 1498 1499 1499 1499 1499 1499 1499 1499 1499 1499 1499 1499 1499 1499 1498 1497 1497 1496 1495 1495 1494 1493 1492 1492 1491
1473 1475 1477 1479 1481 1483 1485 1487 1489 1490 1491 1492 1492 1493 1493 1493 1493 1493 1493 1494 1494 1494 1495 1495 1495 1495 1495 1496 1496 1496 1496 1495 1495 1494 1494 1494 1493 1492 1492 1491 1491 1490 1490
1469 1471 1473 1475 1477 1479 1481 1482 1484 1485 1486 1486 1487 1487 1488 1488 1489 1489 1489 1489 1489 1490 1490 1490 1491 1491 1491 1492 1492 1493 1493 1492 1492 1492 1491 1491 1491 1490 1490 1489 1489 1489 1488
1465 1467 1469 1471 1473 1474 1476 1477 1479 1480 1481 1481 1481 1482 1483 1483 1484 1484 1484 1485 1485 1486 1486 1486 1487 1487 1488 1488 1489 1489 1489 1489 1489 1489 1488 1488 1488 1488 1487 1487 1487 1487 1487
1462 1463 1465 1467 1468 1470 1471 1473 1474 1475 1476 1476 1477 1477 1478 1479 1479 1480 1480 1480 1481 1482 1482 1482 1483 1484 1484 1485 1485 1486 1486 1487 1487 1487 1486 1485 1485 1485 1485 1485 1485 1485 1485
1458 1459 1460 1462 1463 1465 1467 1468 1469 1470 1471 1472 1472 1473 1473 1474 1475 1476 1476 1476 1477 1477 1478 1479 1479 1480 1481 1481 1482 1482 1483 1484 1484 1483 1484 1483 1483 1483 1483 1483 1482 1483 1483
1453 1454 1455 1457 1458 1460 1462 1463 1464 1465 1466 1467 1468 1468 1469 1470 1470 1471 1472 1472 1473 1473 1474 1475 1475 1476 1477 1478 1478 1480 1480 1481 1481 1481 1481 1481 1481 1481 1481 1481 1481 1481 1481
1448 1449 1451 1452 1453 1455 1456 1457 1459 1460 1461 1462 1463 1464 1465 1466 1466 1467 1468 1469 1469 1470 1470 1471 1472 1473 1473 1474 1476 1476 1477 1478 1478 1478 1479 1479 1479 1479 1479 1479 1479 1479 1479
1443 1444 1445 1446 1448 1449 1450 1452 1453 1454 1456 1457 1458 1459 1460 1461 1462 1463 1464 1465 1466 1467 1467 1468 1469 1470 1471 1472 1473 1474 1474 1475 1476 1476 1476 1477 1477 1477 1477 1477 1477 1477 1478